TimeCST,TemperatureF,Dew PointF,Humidity,Sea Level PressureIn,VisibilityMPH,Wind Direction,Wind SpeedMPH,Gust SpeedMPH,PrecipitationIn,Events,Conditions,WindDirDegrees,DateUTC
12:00 AM,39.2,39.2,100,30.16,2.5,West,3.5,-,N/A,,Overcast,280,2012-11-08 06:00:00
12:52 AM,39.9,39.0,97,30.18,2.5,WNW,3.5,-,N/A,,Overcast,300,2012-11-08 06:52:00
1:21 AM,39.2,39.2,100,30.16,3.0,NW,5.8,-,N/A,,Overcast,310,2012-11-08 07:21:00
1:52 AM,39.9,39.0,97,30.19,3.0,South,5.8,-,N/A,,Overcast,190,2012-11-08 07:52:00
2:52 AM,39.9,39.0,97,30.19,3.0,West,4.6,-,N/A,,Overcast,270,2012-11-08 08:52:00
3:52 AM,39.9,37.9,93,30.20,4.0,West,4.6,-,N/A,,Overcast,270,2012-11-08 09:52:00
4:35 AM,39.2,37.4,93,30.18,4.0,West,3.5,-,N/A,,Overcast,270,2012-11-08 10:35:00
4:52 AM,39.9,37.9,93,30.20,4.0,SW,3.5,-,N/A,,Overcast,220,2012-11-08 10:52:00
5:52 AM,39.0,37.9,96,30.20,5.0,Calm,Calm,-,N/A,,Overcast,0,2012-11-08 11:52:00
6:52 AM,39.0,37.0,93,30.22,6.0,South,3.5,-,N/A,,Overcast,190,2012-11-08 12:52:00
7:52 AM,39.9,37.0,89,30.23,6.0,SW,4.6,-,N/A,,Overcast,220,2012-11-08 13:52:00
8:52 AM,41.0,36.0,82,30.23,6.0,SSW,4.6,-,N/A,,Haze,210,2012-11-08 14:52:00
9:52 AM,41.0,35.1,79,30.23,7.0,SSW,6.9,-,N/A,,Overcast,210,2012-11-08 15:52:00
10:52 AM,42.1,35.1,76,30.23,8.0,SSW,6.9,-,N/A,,Overcast,210,2012-11-08 16:52:00
11:52 AM,43.0,34.0,71,30.20,7.0,South,9.2,-,N/A,,Overcast,190,2012-11-08 17:52:00
12:52 PM,44.1,35.1,71,30.17,8.0,South,9.2,-,N/A,,Overcast,180,2012-11-08 18:52:00
1:52 PM,45.0,35.1,68,30.15,8.0,SSW,9.2,-,N/A,,Mostly Cloudy,210,2012-11-08 19:52:00
2:52 PM,46.0,35.1,66,30.14,8.0,South,11.5,-,N/A,,Mostly Cloudy,190,2012-11-08 20:52:00
3:01 PM,44.6,35.6,71,30.12,8.0,South,9.2,-,N/A,,Scattered Clouds,190,2012-11-08 21:01:00
3:13 PM,46.4,35.6,66,30.12,8.0,South,12.7,16.1,N/A,,Mostly Cloudy,190,2012-11-08 21:13:00
3:52 PM,45.0,36.0,71,30.12,8.0,South,11.5,-,N/A,,Scattered Clouds,170,2012-11-08 21:52:00
4:52 PM,42.1,36.0,79,30.12,6.0,South,5.8,-,N/A,,Haze,170,2012-11-08 22:52:00
5:52 PM,39.0,35.1,86,30.13,6.0,SSE,3.5,-,N/A,,Clear,150,2012-11-08 23:52:00
6:52 PM,37.0,34.0,89,30.12,6.0,SSE,5.8,-,N/A,,Clear,160,2012-11-09 00:52:00
7:52 PM,37.0,34.0,89,30.12,5.0,SSE,6.9,-,N/A,,Clear,160,2012-11-09 01:52:00
8:52 PM,37.0,34.0,89,30.11,6.0,SSE,5.8,-,N/A,,Clear,160,2012-11-09 02:52:00
9:52 PM,36.0,33.1,89,30.11,5.0,SSE,5.8,-,N/A,,Clear,150,2012-11-09 03:52:00
10:52 PM,37.0,35.1,93,30.11,5.0,SSE,8.1,-,N/A,,Clear,150,2012-11-09 04:52:00
11:52 PM,35.1,33.1,92,30.13,4.0,SSE,5.8,-,N/A,,Clear,150,2012-11-09 05:52:00